Time,TemperatureF,DewpointF,PressureIn,WindDirection,WindDirectionDegrees,WindSpeedMPH,WindSpeedGustMPH,Humidity,HourlyPrecipIn,Conditions,Clouds,dailyrainin,SoftwareType,DateUTC
2013-06-10 00:08:00,61.3,60.7,29.71,East,90,0.0,-999.0,98,-99.99,,,0.00,Acu-Link.com,2013-06-10 05:08:00,
2013-06-10 00:24:00,61.0,60.4,29.72,South,180,0.0,-999.0,98,-99.99,,,0.00,Acu-Link.com,2013-06-10 05:24:00,
2013-06-10 00:39:00,61.2,60.6,29.71,SW,225,0.0,-999.0,98,-99.99,,,0.00,Acu-Link.com,2013-06-10 05:39:00,
2013-06-10 00:54:00,62.1,60.9,29.72,West,270,1.7,-999.0,96,-99.99,,,0.00,Acu-Link.com,2013-06-10 05:54:00,
2013-06-10 01:09:00,62.6,61.1,29.71,West,270,1.7,-999.0,95,-99.99,,,0.00,Acu-Link.com,2013-06-10 06:09:00,
2013-06-10 01:24:00,62.2,60.7,29.71,WNW,292,0.0,-999.0,95,-99.99,,,0.00,Acu-Link.com,2013-06-10 06:24:00,
2013-06-10 01:39:00,62.8,61.0,29.72,West,270,2.2,-999.0,94,-99.99,,,0.00,Acu-Link.com,2013-06-10 06:39:00,
2013-06-10 01:56:00,63.9,61.2,29.71,West,270,2.2,-999.0,91,-99.99,,,0.00,Acu-Link.com,2013-06-10 06:56:00,
2013-06-10 02:11:00,63.9,61.2,29.71,West,270,1.7,-999.0,91,-99.99,,,0.00,Acu-Link.com,2013-06-10 07:11:00,
2013-06-10 02:26:00,63.7,61.0,29.71,West,270,1.7,-999.0,91,-99.99,,,0.00,Acu-Link.com,2013-06-10 07:26:00,
2013-06-10 02:41:00,63.1,60.4,29.71,West,270,1.7,-999.0,91,-99.99,,,0.00,Acu-Link.com,2013-06-10 07:41:00,
2013-06-10 03:12:00,63.3,60.6,29.70,WNW,292,3.2,-999.0,91,-99.99,,,0.00,Acu-Link.com,2013-06-10 08:12:00,
2013-06-10 03:27:00,63.5,60.5,29.71,West,270,3.7,-999.0,90,-99.99,,,0.00,Acu-Link.com,2013-06-10 08:27:00,
2013-06-10 03:42:00,63.5,60.5,29.70,West,270,2.2,-999.0,90,-99.99,,,0.00,Acu-Link.com,2013-06-10 08:42:00,
2013-06-10 04:00:00,63.3,60.3,29.72,WNW,292,2.7,-999.0,90,-99.99,,,0.00,Acu-Link.com,2013-06-10 09:00:00,
2013-06-10 04:15:00,62.6,59.9,29.72,WNW,292,0.0,-999.0,91,-99.99,,,0.00,Acu-Link.com,2013-06-10 09:15:00,
2013-06-10 04:30:00,61.9,59.9,29.72,WNW,292,2.2,-999.0,93,-99.99,,,0.00,Acu-Link.com,2013-06-10 09:30:00,
2013-06-10 04:45:00,61.9,59.9,29.73,WNW,292,2.2,-999.0,93,-99.99,,,0.00,Acu-Link.com,2013-06-10 09:45:00,
2013-06-10 05:01:00,61.7,59.7,29.72,West,270,2.2,-999.0,93,-99.99,,,0.00,Acu-Link.com,2013-06-10 10:01:00,
2013-06-10 05:32:00,61.5,59.8,29.73,West,270,1.7,-999.0,94,-99.99,,,0.00,Acu-Link.com,2013-06-10 10:32:00,
2013-06-10 05:47:00,61.2,59.8,29.74,WNW,292,2.2,-999.0,95,-99.99,,,0.00,Acu-Link.com,2013-06-10 10:47:00,
2013-06-10 06:02:00,61.2,59.8,29.74,West,270,2.7,-999.0,95,-99.99,,,0.00,Acu-Link.com,2013-06-10 11:02:00,
2013-06-10 06:18:00,61.5,59.8,29.75,WNW,292,2.2,-999.0,94,-99.99,,,0.00,Acu-Link.com,2013-06-10 11:18:00,
2013-06-10 06:33:00,63.5,61.4,29.74,SSW,202,2.7,-999.0,93,-99.99,,,0.00,Acu-Link.com,2013-06-10 11:33:00,
2013-06-10 06:48:00,65.8,62.8,29.76,WNW,292,3.2,-999.0,90,-99.99,,,0.00,Acu-Link.com,2013-06-10 11:48:00,
2013-06-10 07:03:00,67.3,63.3,29.76,West,270,3.2,-999.0,87,-99.99,,,0.00,Acu-Link.com,2013-06-10 12:03:00,
2013-06-10 07:19:00,68.2,64.2,29.76,West,270,4.7,-999.0,87,-99.99,,,0.00,Acu-Link.com,2013-06-10 12:19:00,
2013-06-10 07:34:00,68.2,63.8,29.76,West,270,3.2,-999.0,86,-99.99,,,0.00,Acu-Link.com,2013-06-10 12:34:00,
2013-06-10 07:49:00,69.8,65.1,29.78,West,270,2.7,-999.0,85,-99.99,,,0.00,Acu-Link.com,2013-06-10 12:49:00,
2013-06-10 08:04:00,69.6,64.5,29.78,NW,315,4.7,-999.0,84,-99.99,,,0.00,Acu-Link.com,2013-06-10 13:04:00,
2013-06-10 08:19:00,70.3,65.2,29.77,NW,315,4.7,-999.0,84,-99.99,,,0.00,Acu-Link.com,2013-06-10 13:19:00,
2013-06-10 08:34:00,70.2,65.1,29.77,NW,315,5.8,-999.0,84,-99.99,,,0.00,Acu-Link.com,2013-06-10 13:34:00,
2013-06-10 08:50:00,70.5,65.4,29.77,WNW,292,5.3,-999.0,84,-99.99,,,0.00,Acu-Link.com,2013-06-10 13:50:00,
2013-06-10 09:05:00,71.6,66.2,29.78,WNW,292,4.7,-999.0,83,-99.99,,,0.00,Acu-Link.com,2013-06-10 14:05:00,
2013-06-10 09:20:00,73.0,66.8,29.77,WNW,292,5.8,-999.0,81,-99.99,,,0.00,Acu-Link.com,2013-06-10 14:20:00,
2013-06-10 09:35:00,73.2,67.4,29.78,NNE,22,4.2,-999.0,82,-99.99,,,0.00,Acu-Link.com,2013-06-10 14:35:00,
2013-06-10 09:50:00,71.1,65.7,29.77,NW,315,7.3,-999.0,83,-99.99,,,0.00,Acu-Link.com,2013-06-10 14:50:00,
2013-06-10 10:05:00,70.7,65.3,29.77,ENE,67,8.3,-999.0,83,-99.99,,,0.00,Acu-Link.com,2013-06-10 15:05:00,
2013-06-10 10:20:00,71.6,66.2,29.78,NW,315,5.3,-999.0,83,-99.99,,,0.00,Acu-Link.com,2013-06-10 15:20:00,
2013-06-10 10:35:00,72.0,66.2,29.77,North,0,4.2,-999.0,82,-99.99,,,0.00,Acu-Link.com,2013-06-10 15:35:00,
2013-06-10 10:50:00,73.2,67.0,29.77,WNW,292,3.7,-999.0,81,-99.99,,,0.00,Acu-Link.com,2013-06-10 15:50:00,
2013-06-10 11:06:00,74.3,67.0,29.78,WNW,292,4.2,-999.0,78,-99.99,,,0.00,Acu-Link.com,2013-06-10 16:06:00,
2013-06-10 11:21:00,74.3,67.0,29.78,NNW,337,2.2,-999.0,78,-99.99,,,0.00,Acu-Link.com,2013-06-10 16:21:00,
2013-06-10 11:36:00,75.9,67.4,29.78,West,270,4.7,-999.0,75,-99.99,,,0.00,Acu-Link.com,2013-06-10 16:36:00,
2013-06-10 11:51:00,75.7,67.6,29.78,WNW,292,2.2,-999.0,76,-99.99,,,0.00,Acu-Link.com,2013-06-10 16:51:00,
2013-06-10 12:06:00,77.2,68.3,29.78,NNW,337,2.2,-999.0,74,-99.99,,,0.00,Acu-Link.com,2013-06-10 17:06:00,
2013-06-10 12:21:00,77.4,68.8,29.78,NW,315,2.7,-999.0,75,-99.99,,,0.00,Acu-Link.com,2013-06-10 17:21:00,
2013-06-10 12:36:00,76.8,67.1,29.78,NNE,22,5.3,-999.0,72,-99.99,,,0.00,Acu-Link.com,2013-06-10 17:36:00,
2013-06-10 12:51:00,77.7,67.5,29.77,North,0,4.7,-999.0,71,-99.99,,,0.00,Acu-Link.com,2013-06-10 17:51:00,
2013-06-10 13:06:00,79.5,68.0,29.77,NE,45,5.3,-999.0,68,-99.99,,,0.00,Acu-Link.com,2013-06-10 18:06:00,
2013-06-10 13:22:00,79.5,68.8,29.76,NNW,337,4.7,-999.0,70,-99.99,,,0.00,Acu-Link.com,2013-06-10 18:22:00,
2013-06-10 13:37:00,79.2,68.6,29.76,NNE,22,1.7,-999.0,70,-99.99,,,0.00,Acu-Link.com,2013-06-10 18:37:00,
2013-06-10 13:52:00,83.3,69.8,29.76,ENE,67,5.8,-999.0,64,-99.99,,,0.00,Acu-Link.com,2013-06-10 18:52:00,
2013-06-10 14:07:00,81.9,69.0,29.76,NNE,22,1.1,-999.0,65,-99.99,,,0.00,Acu-Link.com,2013-06-10 19:07:00,
2013-06-10 14:22:00,82.6,70.1,29.76,North,0,0.0,-999.0,66,-99.99,,,0.00,Acu-Link.com,2013-06-10 19:22:00,
2013-06-10 14:37:00,83.1,68.2,29.76,SSW,202,3.7,-999.0,61,-99.99,,,0.00,Acu-Link.com,2013-06-10 19:37:00,
2013-06-10 14:52:00,85.5,70.0,29.75,WNW,292,1.7,-999.0,60,-99.99,,,0.00,Acu-Link.com,2013-06-10 19:52:00,
2013-06-10 15:07:00,83.3,68.4,29.75,NNW,337,4.2,-999.0,61,-99.99,,,0.00,Acu-Link.com,2013-06-10 20:07:00,
2013-06-10 15:22:00,86.7,68.6,29.75,SSE,157,2.2,-999.0,55,-99.99,,,0.00,Acu-Link.com,2013-06-10 20:22:00,
2013-06-10 15:38:00,86.0,68.4,29.74,West,270,3.2,-999.0,56,-99.99,,,0.00,Acu-Link.com,2013-06-10 20:38:00,
2013-06-10 15:53:00,85.3,68.8,29.74,SW,225,2.2,-999.0,58,-99.99,,,0.00,Acu-Link.com,2013-06-10 20:53:00,
2013-06-10 16:08:00,85.3,68.3,29.74,West,270,3.2,-999.0,57,-99.99,,,0.00,Acu-Link.com,2013-06-10 21:08:00,
2013-06-10 16:23:00,84.6,67.7,29.75,WSW,247,3.7,-999.0,57,-99.99,,,0.00,Acu-Link.com,2013-06-10 21:23:00,
2013-06-10 16:38:00,88.2,69.4,29.74,SSE,157,1.1,-999.0,54,-99.99,,,0.00,Acu-Link.com,2013-06-10 21:38:00,
2013-06-10 16:53:00,86.2,68.6,29.74,South,180,3.2,-999.0,56,-99.99,,,0.00,Acu-Link.com,2013-06-10 21:53:00,
2013-06-10 17:08:00,86.2,69.1,29.74,South,180,2.7,-999.0,57,-99.99,,,0.00,Acu-Link.com,2013-06-10 22:08:00,
2013-06-10 17:23:00,86.2,69.1,29.73,East,90,0.0,-999.0,57,-99.99,,,0.00,Acu-Link.com,2013-06-10 22:23:00,
2013-06-10 17:38:00,86.4,69.3,29.72,South,180,3.2,-999.0,57,-99.99,,,0.00,Acu-Link.com,2013-06-10 22:38:00,
2013-06-10 17:54:00,86.9,68.8,29.74,East,90,0.0,-999.0,55,-99.99,,,0.00,Acu-Link.com,2013-06-10 22:54:00,
2013-06-10 18:09:00,91.8,69.3,29.74,NNE,22,0.0,-999.0,48,-99.99,,,0.00,Acu-Link.com,2013-06-10 23:09:00,
2013-06-10 18:24:00,90.7,68.9,29.73,ESE,112,0.0,-999.0,49,-99.99,,,0.00,Acu-Link.com,2013-06-10 23:24:00,
2013-06-10 18:39:00,84.9,67.9,29.72,East,90,0.0,-999.0,57,-99.99,,,0.00,Acu-Link.com,2013-06-10 23:39:00,
2013-06-10 18:54:00,84.9,69.4,29.73,South,180,2.2,-999.0,60,-99.99,,,0.00,Acu-Link.com,2013-06-10 23:54:00,
2013-06-10 19:09:00,85.1,70.1,29.74,SSE,157,3.7,-999.0,61,-99.99,,,0.00,Acu-Link.com,2013-06-11 00:09:00,
2013-06-10 19:24:00,81.3,69.7,29.72,SSE,157,2.7,-999.0,68,-99.99,,,0.00,Acu-Link.com,2013-06-11 00:24:00,
2013-06-10 19:39:00,79.3,69.1,29.72,South,180,3.2,-999.0,71,-99.99,,,0.00,Acu-Link.com,2013-06-11 00:39:00,
2013-06-10 19:54:00,78.3,69.3,29.73,SE,135,3.2,-999.0,74,-99.99,,,0.00,Acu-Link.com,2013-06-11 00:54:00,
2013-06-10 20:10:00,77.2,69.4,29.74,South,180,3.2,-999.0,77,-99.99,,,0.00,Acu-Link.com,2013-06-11 01:10:00,
2013-06-10 20:25:00,76.1,69.1,29.73,SE,135,3.2,-999.0,79,-99.99,,,0.00,Acu-Link.com,2013-06-11 01:25:00,
2013-06-10 20:40:00,74.7,68.5,29.72,South,180,2.2,-999.0,81,-99.99,,,0.00,Acu-Link.com,2013-06-11 01:40:00,
2013-06-10 20:55:00,73.8,68.3,29.74,SSE,157,2.7,-999.0,83,-99.99,,,0.00,Acu-Link.com,2013-06-11 01:55:00,
2013-06-10 21:10:00,72.9,68.5,29.73,SSE,157,1.7,-999.0,86,-99.99,,,0.00,Acu-Link.com,2013-06-11 02:10:00,
2013-06-10 21:25:00,72.3,68.2,29.74,SSE,157,2.7,-999.0,87,-99.99,,,0.00,Acu-Link.com,2013-06-11 02:25:00,
2013-06-10 21:40:00,72.1,68.3,29.74,South,180,2.7,-999.0,88,-99.99,,,0.00,Acu-Link.com,2013-06-11 02:40:00,
2013-06-10 21:55:00,72.0,68.2,29.74,SSE,157,3.2,-999.0,88,-99.99,,,0.00,Acu-Link.com,2013-06-11 02:55:00,
2013-06-10 22:10:00,71.1,67.7,29.75,South,180,2.7,-999.0,89,-99.99,,,0.00,Acu-Link.com,2013-06-11 03:10:00,
2013-06-10 22:26:00,70.5,67.4,29.75,SSE,157,2.7,-999.0,90,-99.99,,,0.00,Acu-Link.com,2013-06-11 03:26:00,
2013-06-10 22:41:00,70.9,67.5,29.75,ESE,112,2.7,-999.0,89,-99.99,,,0.00,Acu-Link.com,2013-06-11 03:41:00,
2013-06-10 22:56:00,71.1,67.4,29.75,SSE,157,3.7,-999.0,88,-99.99,,,0.00,Acu-Link.com,2013-06-11 03:56:00,
2013-06-10 23:26:00,70.7,67.3,29.75,SSE,157,3.7,-999.0,89,-99.99,,,0.00,Acu-Link.com,2013-06-11 04:26:00,